• In Lithuania
  • List of Countries
  • For 7 days
  • Water Temperature
  • Satellite Maps
  • Weather Map
  • Weather Widgets
  • user-avatar
    Login

    Hourly Weather Mvanza

    Today, 18 November, Saturday

    Time Temperature Precipitation Wind Pressure Humidity
    00:00 +24°C° 0.5 mm 1 mps 660 mmHg 74%
    01:00 +24°C° 0.5 mm 1 mps 660 mmHg 74%
    02:00 +23°C° 0 mm 1 mps 659 mmHg 74%
    03:00 +23°C° 0.1 mm 1 mps 660 mmHg 73%
    04:00 +23°C° 0.1 mm 1 mps 660 mmHg 73%
    05:00 +23°C° 0.1 mm 1 mps 660 mmHg 73%
    06:00 +24°C° 0.1 mm 1 mps 661 mmHg 69%
    07:00 +25°C° 0.1 mm 2 mps 661 mmHg 64%
    08:00 +26°C° 0.1 mm 2 mps 662 mmHg 60%
    09:00 +27°C° 0 mm 2 mps 662 mmHg 55%
    10:00 +28°C° 0 mm 2 mps 662 mmHg 51%
    11:00 +29°C° 0 mm 2 mps 662 mmHg 46%
    12:00 +30°C° 0 mm 2 mps 661 mmHg 44%
    13:00 +30°C° 0 mm 2 mps 661 mmHg 42%
    14:00 +31°C° 0 mm 2 mps 660 mmHg 40%
    15:00 +30°C° 0 mm 2 mps 659 mmHg 44%
    16:00 +29°C° 0 mm 3 mps 659 mmHg 48%
    17:00 +28°C° 0 mm 3 mps 658 mmHg 52%
    18:00 +27°C° 0 mm 3 mps 659 mmHg 57%
    19:00 +26°C° 0 mm 3 mps 659 mmHg 63%
    20:00 +25°C° 0 mm 3 mps 659 mmHg 68%
    21:00 +25°C° 0 mm 3 mps 659 mmHg 69%
    22:00 +25°C° 0 mm 2 mps 660 mmHg 70%
    23:00 +25°C° 0 mm 2 mps 660 mmHg 71%

    Tomorrow, 19 November, Sunday

    Time Temperature Precipitation Wind Pressure Humidity
    00:00 +24°C° 0.2 mm 2 mps 660 mmHg 72%
    01:00 +24°C° 0.2 mm 2 mps 660 mmHg 72%
    02:00 +24°C° 0.2 mm 2 mps 659 mmHg 73%
    03:00 +24°C° 0.3 mm 2 mps 660 mmHg 73%
    04:00 +23°C° 0.3 mm 2 mps 660 mmHg 73%
    05:00 +23°C° 0.3 mm 2 mps 660 mmHg 74%
    06:00 +24°C° 0.1 mm 3 mps 661 mmHg 69%
    07:00 +25°C° 0.1 mm 3 mps 661 mmHg 64%
    08:00 +26°C° 0.1 mm 4 mps 662 mmHg 60%
    09:00 +27°C° 0 mm 3 mps 662 mmHg 55%
    10:00 +29°C° 0 mm 3 mps 662 mmHg 50%
    11:00 +30°C° 0 mm 3 mps 662 mmHg 44%
    12:00 +30°C° 0 mm 3 mps 661 mmHg 43%
    13:00 +31°C° 0 mm 2 mps 661 mmHg 41%
    14:00 +31°C° 0 mm 2 mps 660 mmHg 40%
    15:00 +30°C° 0 mm 2 mps 660 mmHg 44%
    16:00 +29°C° 0 mm 2 mps 659 mmHg 48%
    17:00 +28°C° 0 mm 3 mps 659 mmHg 52%
    18:00 +28°C° 0 mm 3 mps 659 mmHg 56%
    19:00 +27°C° 0 mm 3 mps 660 mmHg 60%
    20:00 +26°C° 0 mm 3 mps 660 mmHg 64%
    21:00 +26°C° 0.1 mm 2 mps 660 mmHg 65%
    22:00 +26°C° 0.1 mm 2 mps 661 mmHg 67%
    23:00 +25°C° 0.1 mm 2 mps 661 mmHg 68%

    Day after tomorrow, 20 November, Monday

    Time Temperature Precipitation Wind Pressure Humidity
    00:00 +25°C° 0.7 mm 2 mps 660 mmHg 69%
    01:00 +24°C° 0.7 mm 2 mps 660 mmHg 70%
    02:00 +24°C° 0.7 mm 2 mps 660 mmHg 70%
    03:00 +24°C° 0.2 mm 2 mps 660 mmHg 71%
    04:00 +23°C° 0.2 mm 2 mps 660 mmHg 71%
    05:00 +23°C° 0.2 mm 2 mps 660 mmHg 72%
    06:00 +24°C° 0.2 mm 2 mps 661 mmHg 68%
    07:00 +25°C° 0.2 mm 3 mps 662 mmHg 64%
    08:00 +26°C° 0.2 mm 3 mps 662 mmHg 60%
    09:00 +27°C° 0.2 mm 3 mps 662 mmHg 56%
    10:00 +28°C° 0.2 mm 3 mps 662 mmHg 51%
    11:00 +29°C° 0.2 mm 2 mps 663 mmHg 47%
    12:00 +30°C° 0 mm 2 mps 662 mmHg 46%
    13:00 +30°C° 0 mm 2 mps 661 mmHg 45%
    14:00 +30°C° 0 mm 2 mps 660 mmHg 44%
    15:00 +29°C° 0 mm 3 mps 660 mmHg 48%
    16:00 +29°C° 0 mm 3 mps 659 mmHg 52%
    17:00 +28°C° 0 mm 3 mps 659 mmHg 55%
    18:00 +27°C° 0 mm 3 mps 659 mmHg 59%
    19:00 +26°C° 0 mm 2 mps 660 mmHg 63%
    20:00 +25°C° 0 mm 2 mps 660 mmHg 66%
    21:00 +25°C° 0 mm 2 mps 660 mmHg 67%
    22:00 +25°C° 0 mm 2 mps 661 mmHg 67%
    23:00 +25°C° 0 mm 2 mps 661 mmHg 68%

    21 November, Tuesday

    Time Temperature Precipitation Wind Pressure Humidity
    00:00 +25°C° 0.2 mm 2 mps 660 mmHg 69%
    01:00 +24°C° 0.2 mm 2 mps 660 mmHg 70%
    02:00 +24°C° 0.2 mm 2 mps 659 mmHg 72%
    03:00 +24°C° 0.6 mm 2 mps 659 mmHg 72%
    04:00 +23°C° 0.6 mm 1 mps 660 mmHg 73%
    05:00 +23°C° 0.6 mm 1 mps 660 mmHg 73%
    06:00 +24°C° 0.2 mm 1 mps 660 mmHg 69%
    07:00 +25°C° 0.2 mm 2 mps 661 mmHg 65%
    08:00 +26°C° 0.2 mm 2 mps 662 mmHg 61%
    09:00 +27°C° 0.2 mm 2 mps 662 mmHg 57%
    10:00 +28°C° 0.2 mm 2 mps 662 mmHg 53%
    11:00 +29°C° 0.2 mm 2 mps 662 mmHg 50%
    12:00 +29°C° 0.1 mm 2 mps 661 mmHg 49%
    13:00 +29°C° 0.1 mm 2 mps 660 mmHg 49%
    14:00 +29°C° 0.1 mm 2 mps 659 mmHg 48%
    15:00 +29°C° 0 mm 2 mps 659 mmHg 51%
    16:00 +28°C° 0 mm 2 mps 659 mmHg 53%
    17:00 +28°C° 0 mm 2 mps 659 mmHg 55%
    18:00 +27°C° 0.1 mm 2 mps 659 mmHg 59%
    19:00 +26°C° 0.1 mm 2 mps 659 mmHg 62%
    20:00 +25°C° 0.1 mm 2 mps 660 mmHg 66%
    21:00 +25°C° 0.2 mm 2 mps 660 mmHg 67%
    22:00 +24°C° 0.2 mm 1 mps 660 mmHg 69%
    23:00 +24°C° 0.2 mm 1 mps 660 mmHg 70%

    22 November, Wednesday

    Time Temperature Precipitation Wind Pressure Humidity
    00:00 +24°C° 0.4 mm 1 mps 659 mmHg 71%
    01:00 +24°C° 0.4 mm 1 mps 659 mmHg 72%
    02:00 +23°C° 0.4 mm 2 mps 658 mmHg 73%
    03:00 +23°C° 0.5 mm 2 mps 659 mmHg 73%
    04:00 +23°C° 0.5 mm 2 mps 659 mmHg 73%
    05:00 +23°C° 0.5 mm 2 mps 659 mmHg 73%
    06:00 +24°C° 0.3 mm 2 mps 660 mmHg 71%
    07:00 +24°C° 0.3 mm 2 mps 661 mmHg 68%
    08:00 +25°C° 0.3 mm 2 mps 662 mmHg 66%
    09:00 +26°C° 0.2 mm 2 mps 662 mmHg 61%
    10:00 +27°C° 0.2 mm 2 mps 661 mmHg 57%
    11:00 +28°C° 0.2 mm 2 mps 661 mmHg 53%
    12:00 +28°C° 0.2 mm 2 mps 661 mmHg 52%
    13:00 +28°C° 0.2 mm 2 mps 660 mmHg 51%
    14:00 +28°C° 0.2 mm 2 mps 659 mmHg 50%
    15:00 +28°C° 0 mm 2 mps 659 mmHg 52%
    16:00 +28°C° 0 mm 2 mps 659 mmHg 54%
    17:00 +27°C° 0 mm 2 mps 659 mmHg 55%
    18:00 +26°C° 0 mm 2 mps 659 mmHg 58%
    19:00 +25°C° 0 mm 2 mps 659 mmHg 62%
    20:00 +25°C° 0 mm 1 mps 660 mmHg 65%
    21:00 +24°C° 0 mm 2 mps 660 mmHg 66%
    22:00 +24°C° 0 mm 2 mps 660 mmHg 68%
    23:00 +24°C° 0 mm 2 mps 660 mmHg 69%

    23 November, Thursday

    Time Temperature Precipitation Wind Pressure Humidity
    00:00 +24°C° 0.3 mm 2 mps 659 mmHg 71%
    01:00 +22°C° 0.3 mm 3 mps 659 mmHg 72%
    02:00 +22°C° 0.3 mm 3 mps 659 mmHg 73%
    03:00 +22°C° 0.5 mm 3 mps 659 mmHg 75%
    04:00 +22°C° 0.5 mm 3 mps 660 mmHg 76%
    05:00 +22°C° 0.5 mm 3 mps 660 mmHg 77%
    06:00 +22°C° 1 mm 3 mps 661 mmHg 77%
    07:00 +23°C° 1 mm 2 mps 661 mmHg 77%
    08:00 +23°C° 1 mm 2 mps 662 mmHg 76%
    09:00 +23°C° 0.6 mm 2 mps 661 mmHg 75%
    10:00 +23°C° 0.6 mm 2 mps 661 mmHg 74%
    11:00 +24°C° 0.6 mm 2 mps 661 mmHg 73%
    12:00 +25°C° 0.1 mm 2 mps 660 mmHg 69%
    13:00 +26°C° 0.1 mm 2 mps 660 mmHg 65%
    14:00 +27°C° 0.1 mm 3 mps 660 mmHg 61%
    15:00 +26°C° 0 mm 3 mps 660 mmHg 62%
    16:00 +26°C° 0 mm 2 mps 659 mmHg 64%
    17:00 +25°C° 0 mm 2 mps 659 mmHg 66%
    18:00 +25°C° 0 mm 2 mps 660 mmHg 68%
    19:00 +24°C° 0 mm 2 mps 660 mmHg 71%
    20:00 +24°C° 0 mm 2 mps 660 mmHg 73%
    21:00 +23°C° 0.2 mm 2 mps 660 mmHg 74%
    22:00 +23°C° 0.2 mm 2 mps 660 mmHg 75%
    23:00 +23°C° 0.2 mm 2 mps 660 mmHg 76%
    Show more